AXM304 WMKK-WADL

Flight info

Callsign AXM304
Flight time N/A
Altitude 35000
Route MITOS1F MITOS M630 BOBAG P501 ANITO B470 PKP L511 SBR W43 AGUNG
Aircraft A320/M-SDE3FGHIRWY/LB1

Departure

Time 2026-05-07 04:07
Airport Kuala Lumpur International Airport (WMKK)

Arrival

Time N/A
Airport Lombok International Airport (WADL)
Time Latitude Longitude Altitude Speed Heading
2026-05-07 03:48 2.73899 101.68671 42 ft 0 kts 146°
2026-05-07 03:53 2.73913 101.68662 42 ft 4 kts 149°
2026-05-07 03:54 2.73937 101.68651 39 ft 4 kts 188°
2026-05-07 03:54 2.73948 101.68656 39 ft 0 kts 236°
2026-05-07 03:56 2.73946 101.68653 39 ft 2 kts 236°
2026-05-07 03:57 2.73944 101.68624 39 ft 7 kts 278°
2026-05-07 03:57 2.73935 101.68568 42 ft 10 kts 236°
2026-05-07 03:57 2.73888 101.68499 42 ft 13 kts 236°
2026-05-07 03:57 2.73836 101.68421 42 ft 14 kts 236°
2026-05-07 03:58 2.73779 101.68337 42 ft 15 kts 236°
2026-05-07 03:58 2.73719 101.68248 40 ft 16 kts 236°
2026-05-07 03:58 2.73644 101.68202 40 ft 14 kts 150°
2026-05-07 03:58 2.73561 101.68261 40 ft 16 kts 146°
2026-05-07 03:59 2.73460 101.68328 40 ft 19 kts 146°
2026-05-07 03:59 2.73349 101.68403 40 ft 19 kts 146°
2026-05-07 03:59 2.73237 101.68479 40 ft 20 kts 147°
2026-05-07 03:59 2.73126 101.68553 40 ft 19 kts 146°
2026-05-07 04:00 2.73016 101.68629 40 ft 19 kts 146°
2026-05-07 04:00 2.72907 101.68702 40 ft 19 kts 146°
2026-05-07 04:00 2.72797 101.68777 40 ft 20 kts 146°
2026-05-07 04:00 2.72681 101.68855 40 ft 21 kts 146°
2026-05-07 04:01 2.72559 101.68938 40 ft 22 kts 146°
2026-05-07 04:01 2.72430 101.69024 40 ft 23 kts 147°
2026-05-07 04:01 2.72296 101.69113 40 ft 24 kts 146°
2026-05-07 04:01 2.72157 101.69206 40 ft 24 kts 146°
2026-05-07 04:02 2.72013 101.69303 40 ft 25 kts 146°
2026-05-07 04:02 2.71912 101.69372 40 ft 16 kts 146°
2026-05-07 04:02 2.71817 101.69382 38 ft 14 kts 221°
2026-05-07 04:02 2.71739 101.69356 39 ft 13 kts 148°
2026-05-07 04:03 2.71653 101.69417 39 ft 18 kts 144°
2026-05-07 04:03 2.71536 101.69495 39 ft 23 kts 146°
2026-05-07 04:03 2.71393 101.69591 38 ft 26 kts 146°
2026-05-07 04:03 2.71242 101.69694 39 ft 27 kts 146°
2026-05-07 04:04 2.71091 101.69796 39 ft 21 kts 146°
2026-05-07 04:04 2.70990 101.69861 39 ft 14 kts 157°
2026-05-07 04:04 2.70930 101.69845 39 ft 8 kts 234°
2026-05-07 04:04 2.70903 101.69804 39 ft 6 kts 237°
2026-05-07 04:05 2.70885 101.69769 39 ft 5 kts 248°
2026-05-07 04:05 2.70888 101.69728 39 ft 7 kts 295°
2026-05-07 04:05 2.70931 101.69693 38 ft 8 kts 325°
2026-05-07 04:05 2.70939 101.69687 38 ft 0 kts 325°
2026-05-07 04:06 2.70991 101.69652 38 ft 35 kts 326°
2026-05-07 04:06 2.71418 101.69366 39 ft 106 kts 326°
2026-05-07 04:06 2.72164 101.68859 36 ft 154 kts 326°
2026-05-07 04:06 2.73164 101.68208 170 ft 183 kts 328°
2026-05-07 04:07 2.74287 101.67512 656 ft 194 kts 328°
2026-05-07 04:07 2.75403 101.66760 1351 ft 191 kts 325°
2026-05-07 04:07 2.76401 101.65892 1818 ft 190 kts 304°
2026-05-07 04:07 2.76776 101.64590 2025 ft 209 kts 271°
2026-05-07 04:08 2.76736 101.63060 2243 ft 230 kts 264°
2026-05-07 04:08 2.76605 101.61387 2409 ft 259 kts 264°
2026-05-07 04:08 2.76436 101.59451 2493 ft 293 kts 259°
2026-05-07 04:08 2.75734 101.57470 2802 ft 313 kts 232°
2026-05-07 04:09 2.74101 101.56137 3795 ft 296 kts 200°
2026-05-07 04:09 2.72171 101.55809 4502 ft 276 kts 174°
2026-05-07 04:09 2.70303 101.56114 4792 ft 270 kts 167°
2026-05-07 04:09 2.68447 101.56479 4653 ft 273 kts 167°
2026-05-07 04:10 2.66598 101.56846 4346 ft 268 kts 167°
2026-05-07 04:10 2.64779 101.57210 4110 ft 266 kts 167°
2026-05-07 04:10 2.62896 101.57629 3065 ft 291 kts 161°
2026-05-07 04:10 2.61046 101.58313 2975 ft 275 kts 158°
2026-05-07 04:11 2.59255 101.58987 2068 ft 290 kts 159°
2026-05-07 04:11 2.57650 101.59689 3378 ft 216 kts 151°
2026-05-07 04:11 2.56454 101.60406 4568 ft 200 kts 144°
2026-05-07 04:11 2.55307 101.61307 4689 ft 232 kts 137°
2026-05-07 04:12 2.54083 101.62543 4250 ft 259 kts 131°
2026-05-07 04:12 2.52951 101.63968 3150 ft 278 kts 125°
2026-05-07 04:12 2.51796 101.65611 2598 ft 286 kts 126°
2026-05-07 04:12 2.50589 101.67253 1940 ft 290 kts 128°
2026-05-07 04:13 2.49422 101.68771 2292 ft 258 kts 128°
2026-05-07 04:13 2.48324 101.70187 2718 ft 263 kts 128°
2026-05-07 04:13 2.47204 101.71640 1894 ft 280 kts 127°
2026-05-07 04:13 2.46018 101.73238 1496 ft 279 kts 124°
2026-05-07 04:14 2.45350 101.74958 1490 ft 260 kts 93°
2026-05-07 04:14 2.45783 101.76625 1483 ft 245 kts 56°
2026-05-07 04:14 2.47099 101.77623 1488 ft 239 kts 22°
2026-05-07 04:14 2.48673 101.78158 1384 ft 242 kts 21°
2026-05-07 04:15 2.50131 101.78760 1825 ft 221 kts 28°
2026-05-07 04:15 2.51515 101.79581 1989 ft 236 kts 40°
2026-05-07 04:15 2.52792 101.80616 1988 ft 237 kts 31°
2026-05-07 04:15 2.54350 101.80940 1999 ft 233 kts 351°
2026-05-07 04:16 2.55720 101.80218 1999 ft 221 kts 313°
2026-05-07 04:16 2.56803 101.79159 1992 ft 216 kts 323°
2026-05-07 04:16 2.58042 101.78309 2004 ft 215 kts 327°
2026-05-07 04:16 2.59286 101.77489 2004 ft 214 kts 327°
2026-05-07 04:17 2.60530 101.76660 2009 ft 215 kts 326°
2026-05-07 04:17 2.61750 101.75842 2007 ft 202 kts 327°
2026-05-07 04:17 2.62874 101.75089 1812 ft 188 kts 326°
2026-05-07 04:17 2.63938 101.74377 1607 ft 181 kts 326°
2026-05-07 04:18 2.64974 101.73682 1368 ft 176 kts 327°
2026-05-07 04:18 2.65961 101.73020 1162 ft 168 kts 327°
2026-05-07 04:18 2.66927 101.72372 951 ft 167 kts 325°
2026-05-07 04:18 2.67899 101.71722 748 ft 166 kts 325°
2026-05-07 04:19 2.68847 101.71088 539 ft 162 kts 327°
2026-05-07 04:19 2.69778 101.70472 296 ft 159 kts 326°
2026-05-07 04:19 2.70679 101.69851 145 ft 157 kts 326°
2026-05-07 04:19 2.71579 101.69255 41 ft 151 kts 327°
2026-05-07 04:20 2.72317 101.68748 37 ft 104 kts 326°
2026-05-07 04:20 2.72778 101.68445 39 ft 56 kts 327°
2026-05-07 04:20 2.73087 101.68238 38 ft 51 kts 326°
2026-05-07 04:21 2.73370 101.68064 35 ft 14 kts 352°
2026-05-07 04:21 2.73449 101.68103 36 ft 12 kts 50°
2026-05-07 04:21 2.73490 101.68161 37 ft 10 kts 55°
2026-05-07 04:21 2.73541 101.68255 40 ft 17 kts 97°
2026-05-07 04:22 2.73455 101.68332 40 ft 17 kts 146°
2026-05-07 04:22 2.73356 101.68400 38 ft 18 kts 145°
2026-05-07 04:22 2.73252 101.68470 40 ft 18 kts 146°
2026-05-07 04:22 2.73177 101.68520 40 ft 0 kts 146°
2026-05-07 04:25 2.73154 101.68536 40 ft 10 kts 146°
2026-05-07 04:25 2.73069 101.68593 40 ft 17 kts 146°
2026-05-07 04:25 2.72971 101.68660 40 ft 18 kts 145°
2026-05-07 04:25 2.72862 101.68734 40 ft 21 kts 145°
2026-05-07 04:26 2.72728 101.68828 40 ft 26 kts 146°
2026-05-07 04:26 2.72574 101.68928 40 ft 27 kts 146°
2026-05-07 04:26 2.72418 101.69032 40 ft 27 kts 146°
2026-05-07 04:26 2.72257 101.69139 40 ft 28 kts 146°
2026-05-07 04:27 2.72094 101.69248 40 ft 28 kts 146°
2026-05-07 04:27 2.71943 101.69350 40 ft 25 kts 146°
2026-05-07 04:27 2.71816 101.69378 38 ft 19 kts 226°
2026-05-07 04:27 2.71742 101.69357 39 ft 18 kts 153°
2026-05-07 04:28 2.71636 101.69428 39 ft 19 kts 145°
2026-05-07 04:28 2.71483 101.69531 39 ft 21 kts 146°
2026-05-07 04:28 2.71404 101.69585 38 ft 21 kts 145°
2026-05-07 04:28 2.71278 101.69671 38 ft 22 kts 146°
2026-05-07 04:29 2.71146 101.69759 39 ft 23 kts 146°
2026-05-07 04:29 2.71009 101.69850 39 ft 24 kts 147°
2026-05-07 04:29 2.70905 101.69807 39 ft 19 kts 237°
2026-05-07 04:29 2.70905 101.69710 38 ft 14 kts 322°
2026-05-07 04:30 2.71026 101.69628 36 ft 45 kts 326°
2026-05-07 04:30 2.71481 101.69318 39 ft 110 kts 326°
2026-05-07 04:30 2.72260 101.68794 38 ft 158 kts 326°
2026-05-07 04:30 2.73270 101.68115 222 ft 182 kts 325°
2026-05-07 04:31 2.74257 101.67409 982 ft 172 kts 324°
2026-05-07 04:31 2.75262 101.66719 1551 ft 180 kts 326°
2026-05-07 04:31 2.76231 101.65834 1822 ft 202 kts 298°
2026-05-07 04:31 2.76438 101.64455 2384 ft 190 kts 260°
2026-05-07 04:32 2.76251 101.63236 3327 ft 171 kts 264°
2026-05-07 04:32 2.76211 101.62014 3703 ft 185 kts 269°
2026-05-07 04:32 2.76227 101.60653 3918 ft 207 kts 270°
2026-05-07 04:32 2.76175 101.59213 4565 ft 194 kts 258°
2026-05-07 04:33 2.75562 101.58083 5175 ft 190 kts 218°
2026-05-07 04:33 2.74344 101.57462 5245 ft 216 kts 189°
2026-05-07 04:33 2.72751 101.57318 5385 ft 242 kts 179°
2026-05-07 04:33 2.70966 101.57338 5693 ft 265 kts 176°
2026-05-07 04:34 2.69079 101.57410 6306 ft 276 kts 176°
2026-05-07 04:34 2.67141 101.57486 7011 ft 281 kts 176°
2026-05-07 04:34 2.65206 101.57541 7739 ft 284 kts 177°
2026-05-07 04:34 2.63228 101.57663 8470 ft 286 kts 169°
2026-05-07 04:35 2.61315 101.58211 9180 ft 288 kts 158°
2026-05-07 04:35 2.59425 101.58915 9889 ft 291 kts 159°
2026-05-07 04:35 2.57501 101.59631 10366 ft 304 kts 158°
2026-05-07 04:35 2.55448 101.60395 10513 ft 326 kts 158°
2026-05-07 04:36 2.53275 101.61205 10890 ft 338 kts 158°
2026-05-07 04:36 2.51056 101.62029 11458 ft 343 kts 158°
2026-05-07 04:36 2.48808 101.62865 12078 ft 346 kts 158°
2026-05-07 04:36 2.46535 101.63711 12686 ft 350 kts 158°
2026-05-07 04:37 2.44241 101.64562 13273 ft 353 kts 158°
2026-05-07 04:37 2.41928 101.65419 13840 ft 357 kts 158°
2026-05-07 04:37 2.39589 101.66284 14364 ft 360 kts 158°
2026-05-07 04:37 2.37261 101.67215 14857 ft 362 kts 152°
2026-05-07 04:38 2.35122 101.68549 15365 ft 363 kts 140°
2026-05-07 04:38 2.33272 101.70269 15886 ft 364 kts 133°
2026-05-07 04:38 2.31489 101.72080 16412 ft 367 kts 133°
2026-05-07 04:38 2.29690 101.73910 16899 ft 370 kts 133°
2026-05-07 04:39 2.27878 101.75753 17391 ft 373 kts 133°
2026-05-07 04:39 2.26048 101.77609 17883 ft 376 kts 133°
2026-05-07 04:39 2.24206 101.79476 18337 ft 379 kts 133°
2026-05-07 04:39 2.22372 101.81335 18742 ft 381 kts 133°
2026-05-07 04:40 2.20505 101.83227 19157 ft 384 kts 133°
2026-05-07 04:40 2.18624 101.85135 19571 ft 387 kts 133°
2026-05-07 04:40 2.16727 101.87058 19983 ft 389 kts 133°
2026-05-07 04:40 2.14825 101.88988 20388 ft 391 kts 133°
2026-05-07 04:41 2.12910 101.90932 20777 ft 394 kts 133°
2026-05-07 04:41 2.10980 101.92894 21156 ft 396 kts 133°
2026-05-07 04:41 2.09040 101.94862 21555 ft 399 kts 133°
2026-05-07 04:41 2.07087 101.96841 21942 ft 401 kts 133°
2026-05-07 04:42 2.05136 101.98844 22313 ft 403 kts 130°
2026-05-07 04:42 2.03454 102.01085 22683 ft 404 kts 122°
2026-05-07 04:42 2.01927 102.03456 23039 ft 407 kts 122°
2026-05-07 04:42 2.00387 102.05836 23397 ft 409 kts 122°
2026-05-07 04:43 1.98834 102.08231 23703 ft 411 kts 122°
2026-05-07 04:43 1.97273 102.10633 24001 ft 413 kts 122°
2026-05-07 04:43 1.95689 102.13040 24308 ft 415 kts 122°
2026-05-07 04:43 1.94109 102.15410 24600 ft 417 kts 123°
2026-05-07 04:44 1.92487 102.17825 24905 ft 419 kts 123°
2026-05-07 04:44 1.90857 102.20244 25201 ft 420 kts 123°
2026-05-07 04:44 1.89225 102.22669 25498 ft 422 kts 123°
2026-05-07 04:44 1.87584 102.25111 25789 ft 424 kts 123°
2026-05-07 04:45 1.85939 102.27565 26056 ft 426 kts 123°
2026-05-07 04:45 1.84287 102.30032 26347 ft 428 kts 123°
2026-05-07 04:45 1.82634 102.32508 26633 ft 430 kts 123°
2026-05-07 04:45 1.80970 102.35001 26912 ft 431 kts 123°
2026-05-07 04:46 1.79303 102.37502 27185 ft 433 kts 123°
2026-05-07 04:46 1.77632 102.40011 27454 ft 435 kts 123°
2026-05-07 04:46 1.75953 102.42529 27726 ft 437 kts 123°
2026-05-07 04:46 1.74264 102.45061 27997 ft 438 kts 123°
2026-05-07 04:47 1.72568 102.47598 28270 ft 440 kts 123°
2026-05-07 04:47 1.70862 102.50146 28539 ft 442 kts 123°
2026-05-07 04:47 1.69147 102.52707 28800 ft 444 kts 123°
2026-05-07 04:47 1.67430 102.55271 29058 ft 445 kts 123°
2026-05-07 04:48 1.65725 102.57819 29318 ft 447 kts 123°
2026-05-07 04:48 1.63996 102.60405 29563 ft 449 kts 123°
2026-05-07 04:48 1.62256 102.63001 29797 ft 450 kts 123°
2026-05-07 04:48 1.60511 102.65609 30017 ft 452 kts 123°
2026-05-07 04:49 1.58762 102.68227 30202 ft 454 kts 123°
2026-05-07 04:49 1.57007 102.70855 30396 ft 455 kts 123°
2026-05-07 04:49 1.55243 102.73492 30588 ft 457 kts 123°
2026-05-07 04:49 1.53473 102.76136 30788 ft 458 kts 123°
2026-05-07 04:50 1.51701 102.78785 31028 ft 458 kts 123°
2026-05-07 04:50 1.49932 102.81429 31314 ft 457 kts 123°
2026-05-07 04:50 1.48165 102.84071 31590 ft 457 kts 123°
2026-05-07 04:50 1.46404 102.86705 31861 ft 456 kts 123°
2026-05-07 04:51 1.44644 102.89336 32130 ft 456 kts 123°
2026-05-07 04:51 1.42884 102.91969 32404 ft 455 kts 123°
2026-05-07 04:51 1.41126 102.94599 32682 ft 454 kts 123°
2026-05-07 04:51 1.39373 102.97220 32956 ft 454 kts 123°
2026-05-07 04:52 1.37618 102.99845 33241 ft 453 kts 123°
2026-05-07 04:52 1.35887 103.02428 33522 ft 453 kts 123°
2026-05-07 04:52 1.34138 103.05039 33806 ft 453 kts 123°
2026-05-07 04:52 1.32391 103.07653 34072 ft 452 kts 123°
2026-05-07 04:53 1.30646 103.10265 34312 ft 451 kts 123°
2026-05-07 04:53 1.28904 103.12872 34541 ft 451 kts 123°
2026-05-07 04:53 1.27168 103.15467 34751 ft 451 kts 123°
2026-05-07 04:53 1.25424 103.18071 34843 ft 449 kts 123°
2026-05-07 04:54 1.21975 103.23217 34870 ft 444 kts 123°
2026-05-07 04:54 1.18550 103.28337 34871 ft 443 kts 123°
2026-05-07 04:55 1.15123 103.33462 34864 ft 443 kts 123°
2026-05-07 04:55 1.11696 103.38580 34869 ft 443 kts 123°
2026-05-07 04:56 1.08269 103.43695 34858 ft 443 kts 123°
2026-05-07 04:56 1.04839 103.48808 34860 ft 443 kts 125°
2026-05-07 04:57 1.00758 103.53359 34862 ft 443 kts 133°
2026-05-07 04:57 0.96476 103.57777 34854 ft 443 kts 133°
2026-05-07 04:58 0.92187 103.62208 34854 ft 444 kts 133°
2026-05-07 04:58 0.87895 103.66641 34857 ft 444 kts 133°
2026-05-07 04:59 0.83593 103.71080 34860 ft 444 kts 133°
2026-05-07 04:59 0.79296 103.75517 34869 ft 444 kts 133°
2026-05-07 05:00 0.74994 103.79959 34869 ft 445 kts 133°
2026-05-07 05:00 0.70691 103.84403 34866 ft 445 kts 133°
2026-05-07 05:01 0.66388 103.88844 34866 ft 445 kts 133°
2026-05-07 05:01 0.62083 103.93293 34868 ft 445 kts 133°
2026-05-07 05:02 0.57782 103.97740 34860 ft 445 kts 133°
2026-05-07 05:02 0.53472 104.02189 34862 ft 446 kts 133°
2026-05-07 05:03 0.49163 104.06635 34868 ft 445 kts 133°
2026-05-07 05:03 0.44854 104.11083 34863 ft 446 kts 133°
2026-05-07 05:04 0.40542 104.15538 34866 ft 446 kts 133°
2026-05-07 05:04 0.36229 104.19995 34865 ft 446 kts 133°
2026-05-07 05:05 0.31911 104.24455 34861 ft 447 kts 133°
2026-05-07 05:05 0.27618 104.28884 34859 ft 447 kts 133°
2026-05-07 05:06 0.23293 104.33343 34860 ft 447 kts 133°
2026-05-07 05:06 0.18973 104.37816 34860 ft 447 kts 133°
2026-05-07 05:07 0.14651 104.42288 34860 ft 447 kts 133°
2026-05-07 05:07 0.10318 104.46756 34858 ft 448 kts 133°
2026-05-07 05:08 0.05985 104.51219 34859 ft 448 kts 133°
2026-05-07 05:08 0.01657 104.55690 34856 ft 448 kts 133°
2026-05-07 05:09 -0.02673 104.60156 34852 ft 447 kts 133°
2026-05-07 05:09 -0.06988 104.64610 34859 ft 446 kts 133°
2026-05-07 05:10 -0.11269 104.69041 34866 ft 445 kts 133°
2026-05-07 05:10 -0.15578 104.73483 34866 ft 445 kts 133°
2026-05-07 05:11 -0.19873 104.77917 34867 ft 444 kts 133°
2026-05-07 05:11 -0.24173 104.82356 34868 ft 444 kts 133°
2026-05-07 05:12 -0.28551 104.86719 34868 ft 445 kts 140°
2026-05-07 05:12 -0.33627 104.90256 34868 ft 445 kts 145°
2026-05-07 05:13 -0.38767 104.93720 34865 ft 445 kts 144°
2026-05-07 05:13 -0.43897 104.97188 34865 ft 445 kts 144°
2026-05-07 05:14 -0.49019 105.00660 34864 ft 445 kts 144°
2026-05-07 05:14 -0.54147 105.04129 34860 ft 445 kts 144°
2026-05-07 05:15 -0.59232 105.07571 34854 ft 445 kts 144°
2026-05-07 05:15 -0.64367 105.11038 34856 ft 445 kts 144°
2026-05-07 05:16 -0.69490 105.14505 34858 ft 445 kts 144°
2026-05-07 05:16 -0.74605 105.17970 34864 ft 444 kts 144°
2026-05-07 05:17 -0.79712 105.21432 34855 ft 443 kts 144°
2026-05-07 05:17 -0.84820 105.24887 34848 ft 442 kts 144°
2026-05-07 05:18 -0.89911 105.28321 34817 ft 440 kts 144°
2026-05-07 05:18 -0.94994 105.31758 34828 ft 444 kts 144°
2026-05-07 05:19 -1.00071 105.35196 34847 ft 442 kts 144°
2026-05-07 05:19 -1.05166 105.38641 34859 ft 443 kts 144°
2026-05-07 05:20 -1.10274 105.42107 34863 ft 444 kts 144°
2026-05-07 05:20 -1.15398 105.45589 34855 ft 444 kts 144°
2026-05-07 05:21 -1.23086 105.50782 34863 ft 444 kts 144°
2026-05-07 05:22 -1.28190 105.54237 34864 ft 442 kts 144°
2026-05-07 05:22 -1.33279 105.57689 34861 ft 442 kts 144°
2026-05-07 05:23 -1.38373 105.61142 34860 ft 442 kts 144°
2026-05-07 05:23 -1.43471 105.64588 34858 ft 442 kts 144°
2026-05-07 05:24 -1.47702 105.67450 34856 ft 443 kts 144°
2026-05-07 05:24 -1.52801 105.70899 34854 ft 443 kts 144°
2026-05-07 05:25 -1.57901 105.74355 34856 ft 443 kts 144°
2026-05-07 05:25 -1.62996 105.77806 34855 ft 443 kts 144°
2026-05-07 05:26 -1.68093 105.81267 34855 ft 443 kts 144°
2026-05-07 05:26 -1.73194 105.84723 34853 ft 443 kts 144°
2026-05-07 05:27 -1.78304 105.88181 34852 ft 444 kts 144°
2026-05-07 05:27 -1.83416 105.91641 34856 ft 444 kts 144°
2026-05-07 05:28 -1.88497 105.95083 34854 ft 444 kts 144°
2026-05-07 05:28 -1.93617 105.98551 34854 ft 444 kts 144°
2026-05-07 05:29 -1.98727 106.02017 34853 ft 444 kts 144°
2026-05-07 05:29 -2.03846 106.05485 34851 ft 445 kts 144°
2026-05-07 05:30 -2.08978 106.08954 34856 ft 445 kts 144°
2026-05-07 05:30 -2.14100 106.12425 34852 ft 445 kts 144°
2026-05-07 05:31 -2.18608 106.16580 34853 ft 441 kts 127°
2026-05-07 05:31 -2.22415 106.21393 34847 ft 441 kts 127°
2026-05-07 05:32 -2.26235 106.26206 34849 ft 442 kts 127°
2026-05-07 05:32 -2.30043 106.30985 34849 ft 442 kts 127°
2026-05-07 05:33 -2.33869 106.35794 34854 ft 442 kts 127°
2026-05-07 05:33 -2.37693 106.40614 34852 ft 442 kts 127°
2026-05-07 05:34 -2.41513 106.45429 34850 ft 442 kts 127°
2026-05-07 05:34 -2.45334 106.50245 34854 ft 442 kts 127°
2026-05-07 05:35 -2.49151 106.55058 34853 ft 442 kts 127°
2026-05-07 05:35 -2.52972 106.59869 34850 ft 442 kts 127°
2026-05-07 05:36 -2.56792 106.64678 34850 ft 441 kts 127°
2026-05-07 05:36 -2.60608 106.69486 34847 ft 441 kts 127°
2026-05-07 05:37 -2.64394 106.74258 34843 ft 441 kts 127°